Regional Weather Roundup
Issued by NWS

Home | Current Version | Previous Version | Text Only | Print | Product List | Glossary Off
Versions: 1 2 3 4 5 6 7 8 9 10 11 12 13 14 15 16 17 18 19 20 21 22 23 24 25 26 27 28 29 30 31 32 33 34 35 36 37 38 39 40 41 42 43 44 45 46 47 48 49 50

000
ASUS45 KSLC 221910
RWRUT

UTAH REGIONAL WEATHER ROUNDUP
NATIONAL WEATHER SERVICE SALT LAKE CITY UT
1200 PM MST MON DEC 22 2014

UTZ001>011-023>025-222000-

NORTHERN UTAH

CITY           SKY/WX    TMP DP  RH WIND       PRES   REMARKS
BRIGHAM CITY   CLOUDY    43  33  67 NW14      30.01F
HILL AFB       NOT AVBL
LOGAN          CLOUDY    41  33  73 NW14      29.99R
OGDEN          CLOUDY    41  35  79 W3        30.00S
PROVO AIRPORT  LGT RAIN  37  36  93 CALM      30.02S
SALT LAKE CITY CLOUDY    42  36  79 N5        30.00R
VERNAL         CLOUDY    38  33  82 CALM      29.85F
WENDOVER       PTSUNNY   52  36  54 NW20G26   30.05S
HEBER CITY     MIX PCPN  36  34  93 SW5       29.93S WCI  32
WEST JORDAN    CLOUDY    39  39 100 N3        30.01S

$$

UTZ012>022-026-027-222000-

SOUTHERN/CENTRAL UTAH

CITY           SKY/WX    TMP DP  RH WIND       PRES   REMARKS
BLANDING       CLOUDY    41  39  92 NW7       29.94F
BRYCE CANYON   LGT RAIN  37  33  85 W18G30    30.00F WCI  27
CEDAR CITY     PTSUNNY   53  32  44 W14G20    30.00F
DELTA          CLOUDY    42  40  91 N15       30.05R
MILFORD        CLOUDY    49  36  61 S8        29.99F
MOAB/CYNLANDS  MOSUNNY   42  36  79 W5        29.83F
PRICE          PTSUNNY   45  28  51 NW13G26   29.87F
ST GEORGE      CLOUDY    50  36  57 CALM      30.03F
KANAB          SUNNY     54  37  54 S17       30.03F

$$

REGIONAL REPORTS     COLORADO/ARIZONA

CITY           SKY/WX    TMP DP  RH WIND       PRES   REMARKS
CRAIG, CO      CLOUDY    35  28  75 W15       29.79F WCI  25
GRAND JUNCTION CLOUDY    38  36  92 CALM      29.81F
RIFLE          CLOUDY    37  31  78 W10       29.81F WCI  30
MONTROSE       CLOUDY    37  34  89 E3        29.82F
CORTEZ         LGT RAIN  40  35  83 W13       29.86F WCI  32
PAGE, AZ       SUNNY     57  36  45 NE5       29.90F
GRAND CANYON   SUNNY     49  34  56 NW9G20    30.06F
KINGMAN        SUNNY     63  36  36 N9        30.07F
FLAGSTAFF      SUNNY     52  30  43 VRB6      30.06F

$$

REGIONAL REPORTS    NEVADA/IDAHO/WYOMING

CITY           SKY/WX    TMP DP  RH WIND       PRES   REMARKS
LAS VEGAS, NV  SUNNY     60  41  49 VRB3      30.01F
ELY            CLOUDY    46  36  68 NW16G26   30.13F
ELKO           CLOUDY    47  38  71 NW15      30.17R
POCATELLO, ID  PTSUNNY   38  34  85 W13       30.00F WCI  30
BURLEY         MOSUNNY   41  34  76 W20G36    30.03S
EVANSTON, WY   CLOUDY    33  26  75 NW22G30   29.93S WCI  21
ROCK SPRINGS   LGT SNOW  29  22  75 NW28G35   29.81F WCI  14
KEMMERER       CLOUDY    30  27  86 W23       29.88S FOG     WCI  17

$$



USA.gov is the U.S. government's official web portal to all federal, state and local government web resources and services.